This is the latest recevied weather packets stored in our database for station/object N2XP-3. If no packets are shown the sender has not sent any weather packets the latest 10 day(s).
| Time | Temp. | Humidity | Pressure | Rain* | Wind** | Luminosity | Snow |
|---|---|---|---|---|---|---|---|
| 1777670787 | 18.89° C | 44% | 1007.7 hPa | 0 mm | 1.34 m/s, 302° | - | - |
| 1777670184 | 18.89° C | 43% | 1007.7 hPa | 0 mm | 1.34 m/s, 257° | - | - |
| 1777669885 | 18.89° C | 44% | 1007.7 hPa | 0 mm | 1.79 m/s, 233° | - | - |
| 1777669278 | 18.89° C | 45% | 1007.5 hPa | 0 mm | 0.89 m/s, 224° | - | - |
| 1777668677 | 18.89° C | 45% | 1007.6 hPa | 0 mm | 1.79 m/s, 131° | - | - |
| 1777667765 | 18.89° C | 44% | 1007.7 hPa | 0 mm | 2.24 m/s, 281° | - | - |
| 1777667162 | 18.89° C | 45% | 1007.5 hPa | 0 mm | 1.79 m/s, 253° | - | - |
| 1777666863 | 18.89° C | 45% | 1007.5 hPa | 0 mm | 1.34 m/s, 283° | - | - |
| 1777666259 | 18.89° C | 45% | 1007.7 hPa | 0 mm | 0.45 m/s, 311° | - | - |
| 1777665959 | 18.89° C | 45% | 1007.8 hPa | 0 mm | 1.34 m/s, 200° | - | - |
| 1777665648 | 18.89° C | 46% | 1008 hPa | 0 mm | 0.89 m/s, 186° | - | - |
| 1777665348 | 18.89° C | 45% | 1008 hPa | 0 mm | 3.13 m/s, 340° | - | - |
| 1777665049 | 19.44° C | 45% | 1008.1 hPa | 0 mm | 1.34 m/s, 228° | - | - |
| 1777664144 | 19.44° C | 44% | 1008.1 hPa | 0 mm | 1.79 m/s, 205° | - | - |
| 1777663842 | 19.44° C | 44% | 1008.1 hPa | 0 mm | 1.34 m/s, 266° | - | - |
| 1777662934 | 19.44° C | 44% | 1008.1 hPa | 0 mm | 2.68 m/s, 218° | - | - |
| 1777662335 | 20° C | 43% | 1008.1 hPa | 0 mm | 2.24 m/s, 326° | - | - |
| 1777662033 | 20° C | 44% | 1008.3 hPa | 0 mm | 2.24 m/s, 14° | - | - |
| 1777660530 | 18.89° C | 46% | 1008.6 hPa | 0 mm | 2.24 m/s, 255° | - | - |
| 1777660225 | 18.89° C | 44% | 1008.6 hPa | 0 mm | 1.34 m/s, 277° | - | - |
| 1777659626 | 18.89° C | 46% | 1008.6 hPa | 0 mm | 0.89 m/s, 224° | - | - |
| 1777659322 | 18.89° C | 46% | 1008.7 hPa | 0 mm | 1.34 m/s, 46° | - | - |
| 1777659134 | 18.33° C | 45% | 1008.7 hPa | 0 mm | 0.89 m/s, 333° | - | - |
| 1777659019 | 18.33° C | 45% | 1008.7 hPa | 0 mm | 0.89 m/s, 333° | - | - |
| 1777658497 | 18.33° C | 45% | 1008.8 hPa | 0 mm | 1.34 m/s, 20° | - | - |
* Rain latest hour (hover to see other rain measurements)
** Current wind speed in m/s (hover to see current wind gust speed)